GW6864 Weather Reports


time (UTC)temp
C
wind
direction
speed
KPH
gust
KPH
rain 1hr
cm
rain 24hr
cm
rain mn
cm
humidity
%
barometer
mb
20260503230636 16 198 4.8 4.8 0.00 0.03 0.03 40 1018.2
20260503230134 16 209 1.6 3.2 0.00 0.03 0.03 41 1018.2
20260503225631 16 202 8.0 9.7 0.00 0.03 0.03 39 1018.3
20260503225131 17 209 9.7 12.9 0.00 0.03 0.03 37 1018.3
20260503224628 17 214 8.0 12.9 0.00 0.03 0.03 38 1018.2
20260503224126 16 238 8.0 9.7 0.00 0.03 0.03 40 1018.4
20260503223624 16 181 1.6 1.6 0.00 0.03 0.03 37 1018.3
20260503223120 16 218 6.4 6.4 0.00 0.03 0.03 39 1018.4
20260503222617 17 204 9.7 11.3 0.00 0.03 0.03 38 1018.4
20260503222115 17 209 3.2 3.2 0.00 0.03 0.03 37 1018.6
20260503221613 17 211 0.0 1.6 0.00 0.03 0.03 39 1018.7
20260503221110 18 201 0.0 0.0 0.00 0.03 0.03 37 1018.7
20260503220607 18 197 1.6 3.2 0.00 0.03 0.03 37 1018.7
20260503220104 18 215 1.6 1.6 0.00 0.03 0.03 35 1018.9
20260503215601 18 190 1.6 1.6 0.00 0.03 0.03 39 1018.9
20260503215057 18 201 0.0 0.0 0.00 0.03 0.03 36 1019.0
20260503214556 17 223 8.0 11.3 0.00 0.03 0.03 34 1019.0
20260503214052 18 186 4.8 6.4 0.00 0.03 0.03 37 1019.1
20260503213551 18 208 1.6 1.6 0.00 0.03 0.03 36 1019.2
20260503213047 18 204 6.4 9.7 0.00 0.03 0.03 36 1019.6
20260503212544 18 177 11.3 17.7 0.00 0.03 0.03 35 1019.6
20260503212042 18 216 3.2 4.8 0.00 0.03 0.03 37 1019.5
20260503211539 18 229 1.6 1.6 0.00 0.03 0.03 37 1019.5
20260503211034 18 215 3.2 3.2 0.00 0.03 0.03 39 1019.8
20260503210531 18 193 3.2 3.2 0.00 0.03 0.03 38 1019.6
20260503210027 18 198 1.6 1.6 0.00 0.03 0.03 42 1019.7
20260503205524 19 192 1.6 1.6 0.00 0.03 0.03 38 1019.7
20260503205020 19 209 3.2 3.2 0.00 0.03 0.03 40 1019.8
20260503204517 19 215 3.2 3.2 0.00 0.03 0.03 39 1019.9
20260503204014 18 207 1.6 1.6 0.00 0.03 0.03 43 1020.0
20260503203511 18 197 0.0 0.0 0.00 0.03 0.03 39 1020.0
20260503203008 18 222 4.8 4.8 0.00 0.03 0.03 41 1020.2
20260503202506 18 210 1.6 1.6 0.00 0.03 0.03 40 1020.3
20260503202004 18 202 1.6 1.6 0.00 0.03 0.03 40 1020.2
20260503201501 18 200 3.2 3.2 0.00 0.03 0.03 39 1020.3
20260503200959 18 204 1.6 1.6 0.00 0.03 0.03 35 1020.4
20260503200455 18 205 3.2 3.2 0.00 0.03 0.03 41 1020.5
20260503195951 18 185 9.7 11.3 0.00 0.03 0.03 35 1020.3
20260503195449 18 211 1.6 1.6 0.00 0.03 0.03 42 1020.5
20260503194945 17 237 3.2 3.2 0.00 0.03 0.03 39 1020.8
20260503194443 17 228 6.4 6.4 0.00 0.03 0.03 40 1020.8
20260503193938 17 206 6.4 6.4 0.00 0.03 0.03 39 1020.9
20260503193433 17 239 6.4 6.4 0.00 0.03 0.03 43 1020.9
20260503192929 17 219 9.7 11.3 0.00 0.03 0.03 40 1021.0
20260503192426 16 206 8.0 11.3 0.00 0.03 0.03 40 1021.1
20260503191921 17 205 8.0 11.3 0.00 0.03 0.03 42 1021.0
20260503191420 17 198 6.4 9.7 0.00 0.03 0.03 42 1021.3
20260503190915 16 224 6.4 9.7 0.00 0.03 0.03 46 1021.2
20260503190413 16 200 6.4 9.7 0.00 0.03 0.03 43 1021.3
20260503185909 16 170 1.6 1.6 0.00 0.03 0.03 43 1021.5
20260503185406 16 214 8.0 11.3 0.00 0.03 0.03 43 1021.5
20260503184905 16 191 1.6 1.6 0.00 0.03 0.03 45 1021.6
20260503184402 16 178 1.6 3.2 0.00 0.03 0.03 44 1021.6
20260503183858 16 207 11.3 12.9 0.00 0.03 0.03 44 1021.6
20260503183355 16 204 1.6 1.6 0.00 0.03 0.03 46 1021.4
20260503182852 16 216 4.8 6.4 0.00 0.03 0.03 43 1021.9
20260503182351 16 236 1.6 1.6 0.00 0.03 0.03 42 1021.8
20260503181848 15 212 1.6 1.6 0.00 0.03 0.03 49 1021.9
20260503181345 16 216 11.3 12.9 0.00 0.03 0.03 44 1021.9
20260503180842 16 199 6.4 9.7 0.00 0.03 0.03 47 1022.1
20260503180340 16 201 3.2 3.2 0.00 0.03 0.03 51 1021.9
20260503175836 16 67 8.0 9.7 0.00 0.03 0.03 46 1022.1
20260503175334 15 212 3.2 4.8 0.00 0.03 0.03 52 1022.0
20260503174835 16 229 6.4 9.7 0.00 0.03 0.03 53 1022.2
20260503174333 15 242 3.2 4.8 0.00 0.03 0.03 53 1022.2
20260503173828 15 199 1.6 1.6 0.00 0.03 0.03 49 1022.3
20260503173325 15 204 3.2 3.2 0.00 0.03 0.03 45 1022.7
20260503172821 15 195 4.8 4.8 0.00 0.03 0.03 51 1022.2
20260503172319 15 86 8.0 9.7 0.00 0.03 0.03 47 1022.7
20260503171815 15 209 1.6 3.2 0.00 0.03 0.03 46 1022.6
20260503171312 14 211 3.2 3.2 0.00 0.03 0.03 50 1022.7
20260503170809 14 208 3.2 4.8 0.00 0.03 0.03 53 1023.0
20260503170306 13 197 1.6 1.6 0.00 0.03 0.03 56 1022.9
20260503150658 12 198 8.0 9.7 0.00 0.03 0.03 61 1023.7
20260503150154 12 205 9.7 11.3 0.00 0.03 0.03 63 1023.8
20260503140118 10 200 0.0 0.0 0.00 0.03 0.03 77 1023.8
20260503131048 7 204 1.6 1.6 0.00 0.03 0.03 97 1023.7
20260503130545 7 208 4.8 4.8 0.00 0.03 0.03 97 1023.8
20260503110435 5 204 0.0 0.0 0.00 0.03 0.03 97 1022.2
20260503090326 4 200 0.0 0.0 0.00 0.00 0.00 97 1021.9
20260503081254 3 200 0.0 0.0 0.00 0.00 0.00 97 1021.6
20260503080750 3 200 0.0 0.0 0.00 0.00 0.00 97 1021.5
20260503080247 3 200 0.0 0.0 0.00 0.00 0.00 97 1021.4
20260503072724 4 200 0.0 0.0 0.00 0.00 0.00 97 1021.1
20260503072221 4 200 0.0 0.0 0.00 0.00 0.00 97 1021.1
20260503071717 4 200 0.0 0.0 0.00 0.00 0.00 97 1021.0
20260503071214 4 200 0.0 0.0 0.00 0.00 0.00 97 1021.2
20260503070711 4 200 0.0 0.0 0.00 0.00 0.00 97 1021.1
20260503070209 4 200 0.0 0.0 0.00 0.00 0.00 97 1021.0
20260503060133 6 201 0.0 0.0 0.00 0.00 0.00 96 1021.1
20260503055125 6 201 1.6 1.6 0.00 0.00 0.00 96 1021.0
20260503054620 6 201 0.0 0.0 0.00 0.00 0.00 96 1020.9
20260503054118 6 201 0.0 0.0 0.00 0.00 0.00 96 1020.9
20260503053615 6 201 0.0 0.0 0.00 0.00 0.00 96 1021.1
20260503053114 6 201 0.0 0.0 0.00 0.00 0.00 96 1020.8
20260503052610 6 201 0.0 0.0 0.00 0.00 0.00 96 1021.1
20260503052106 6 201 0.0 0.0 0.00 0.00 0.00 96 1021.0
20260503051602 6 201 0.0 0.0 0.00 0.00 0.00 96 1020.9
20260503051100 6 201 0.0 0.0 0.00 0.00 0.00 96 1021.0
20260503050555 6 201 0.0 0.0 0.00 0.00 0.00 96 1020.9
20260503050053 6 201 0.0 0.0 0.00 0.36 0.36 96 1020.8
20260503045550 6 201 0.0 0.0 0.00 0.36 0.36 96 1020.7
20260503045047 6 201 0.0 0.0 0.00 0.36 0.36 96 1020.9
20260503044544 6 201 0.0 0.0 0.00 0.36 0.36 96 1020.7
20260503044041 6 201 0.0 0.0 0.00 0.36 0.36 96 1020.7
20260503043537 6 201 0.0 0.0 0.00 0.36 0.36 96 1020.7
20260503043034 6 201 0.0 0.0 0.00 0.36 0.36 96 1020.8
20260503042531 6 201 0.0 0.0 0.00 0.36 0.36 96 1020.7
20260503042027 6 201 0.0 0.0 0.00 0.36 0.36 95 1020.7
20260503041524 6 201 0.0 0.0 0.00 0.36 0.36 95 1020.8
20260503041022 6 201 0.0 0.0 0.00 0.36 0.36 95 1020.5
20260503040519 7 201 0.0 0.0 0.00 0.36 0.36 95 1020.7
20260503040016 7 201 0.0 0.0 0.00 0.36 0.36 95 1020.5
20260503035513 7 201 0.0 0.0 0.00 0.36 0.36 95 1020.5
20260503035011 7 201 0.0 0.0 0.00 0.36 0.36 95 1020.7
20260503034508 7 201 0.0 0.0 0.00 0.36 0.36 95 1020.4
20260503034004 7 201 0.0 0.0 0.00 0.36 0.36 95 1020.5
20260503033501 7 201 0.0 0.0 0.00 0.36 0.36 94 1020.4
20260503033000 7 201 0.0 0.0 0.00 0.36 0.36 95 1020.6
20260503032458 7 201 0.0 0.0 0.00 0.36 0.36 95 1020.4
20260503031955 7 201 0.0 0.0 0.00 0.36 0.36 95 1020.5
20260503031453 7 201 0.0 0.0 0.00 0.36 0.36 95 1020.5
20260503030949 7 201 0.0 0.0 0.00 0.36 0.36 95 1020.6
20260503030446 7 201 0.0 0.0 0.00 0.36 0.36 95 1020.3
20260503025943 7 201 0.0 0.0 0.00 0.36 0.36 95 1020.5
20260503025440 8 201 0.0 0.0 0.00 0.36 0.36 95 1020.5
20260503024938 8 201 0.0 0.0 0.00 0.36 0.36 95 1020.3
20260503024434 8 201 0.0 0.0 0.00 0.36 0.36 95 1020.4
20260503023931 8 201 0.0 0.0 0.00 0.36 0.36 95 1020.4
20260503023428 7 201 1.6 1.6 0.00 0.36 0.36 95 1020.1
20260503022925 7 201 0.0 0.0 0.00 0.36 0.36 95 1020.0
20260503022420 7 201 0.0 0.0 0.00 0.36 0.36 94 1020.0
20260503021916 7 200 0.0 0.0 0.00 0.36 0.36 94 1019.8
20260503021412 7 200 0.0 0.0 0.00 0.36 0.36 94 1020.0
20260503020910 7 200 0.0 0.0 0.00 0.36 0.36 94 1020.0
20260503020407 7 200 0.0 0.0 0.00 0.36 0.36 94 1019.9
20260503015903 7 200 0.0 0.0 0.00 0.36 0.36 94 1019.7
20260503015401 7 201 0.0 0.0 0.00 0.36 0.36 94 1019.7
20260503014856 7 201 0.0 0.0 0.00 0.36 0.36 94 1019.9
20260503014354 7 201 0.0 0.0 0.00 0.36 0.36 93 1019.8
20260503013852 8 201 0.0 0.0 0.00 0.36 0.36 93 1019.8
20260503013348 8 201 0.0 0.0 0.00 0.36 0.36 93 1019.7
20260503012845 8 201 0.0 0.0 0.00 0.36 0.36 92 1019.9
20260503012343 8 201 0.0 0.0 0.00 0.36 0.36 92 1020.0
20260503011840 8 201 0.0 0.0 0.00 0.36 0.36 92 1019.8
20260503011337 8 201 0.0 0.0 0.13 0.36 0.36 92 1019.9
20260503010833 8 201 0.0 0.0 0.13 0.36 0.36 92 1020.0
20260503010330 8 201 0.0 0.0 0.18 0.33 0.33 92 1019.9
20260503005827 8 203 0.0 0.0 0.48 0.33 0.33 91 1019.8
20260503005325 8 212 1.6 1.6 0.89 0.30 0.30 90 1020.0
20260503004820 9 221 0.0 0.0 0.71 0.25 0.25 90 1019.8
20260503004318 9 214 3.2 3.2 0.30 0.18 0.18 89 1020.0
20260503003816 9 198 1.6 1.6 0.00 0.13 0.13 89 1019.5
20260503003312 9 190 1.6 1.6 0.00 0.13 0.13 89 1019.5
20260503002809 9 189 1.6 1.6 0.00 0.13 0.13 90 1019.2
20260503002306 9 186 0.0 0.0 0.00 0.13 0.13 91 1019.0
20260503001803 9 182 1.6 1.6 0.00 0.13 0.13 91 1018.8
20260503001259 9 182 1.6 1.6 0.00 0.13 0.13 91 1018.7
20260503000757 9 182 0.0 0.0 0.00 0.13 0.13 90 1018.6
20260503000254 9 181 0.0 0.0 0.00 0.13 0.13 89 1018.5
20260502235751 9 182 0.0 0.0 0.00 0.13 0.13 89 1018.5
20260502235249 9 181 0.0 0.0 0.00 0.13 0.13 88 1018.4
20260502234744 9 182 1.6 1.6 0.00 0.13 0.13 86 1018.3
20260502234242 10 182 1.6 1.6 0.00 0.13 0.13 85 1018.5
20260502233738 10 181 0.0 0.0 0.00 0.13 0.13 83 1018.4
20260502233235 10 180 0.0 0.0 0.00 0.13 0.13 83 1018.2
20260502232730 10 181 0.0 0.0 0.00 0.13 0.13 84 1018.3
20260502232228 10 184 0.0 0.0 0.18 0.13 0.13 82 1018.5
20260502231725 10 183 0.0 0.0 0.18 0.13 0.13 82 1018.4
20260502231222 10 181 0.0 0.0 0.00 0.10 0.10 81 1018.5